• en France
  • Liste des pays
  • À 7 jours
  • Température de l'eau
  • Carte satellitaire
  • Carte météo
  • Widgets météo
  • user-avatar
    Se connecter

    Météo par heure à Manama

    Ce jour, 24 Septembre, Dimanche

    Heure Température Précipitation Vent Pression Humidité
    00:00 +34°C° 0 mm 2 m/s 755 mmHg 58%
    01:00 +34°C° 0 mm 2 m/s 755 mmHg 57%
    02:00 +34°C° 0 mm 3 m/s 755 mmHg 55%
    03:00 +34°C° 0 mm 3 m/s 755 mmHg 51%
    04:00 +34°C° 0 mm 3 m/s 755 mmHg 50%
    05:00 +34°C° 0 mm 4 m/s 756 mmHg 49%
    06:00 +34°C° 0 mm 4 m/s 756 mmHg 48%
    07:00 +36°C° 0 mm 4 m/s 756 mmHg 44%
    08:00 +37°C° 0 mm 4 m/s 756 mmHg 40%
    09:00 +40°C° 0 mm 4 m/s 756 mmHg 40%
    10:00 +41°C° 0 mm 4 m/s 756 mmHg 37%
    11:00 +41°C° 0 mm 5 m/s 756 mmHg 33%
    12:00 +42°C° 0 mm 5 m/s 756 mmHg 30%
    13:00 +42°C° 0 mm 5 m/s 755 mmHg 29%
    14:00 +42°C° 0 mm 5 m/s 755 mmHg 29%
    15:00 +42°C° 0 mm 5 m/s 755 mmHg 29%
    16:00 +41°C° 0 mm 5 m/s 755 mmHg 33%
    17:00 +40°C° 0 mm 5 m/s 755 mmHg 38%
    18:00 +37°C° 0 mm 4 m/s 755 mmHg 42%
    19:00 +37°C° 0 mm 4 m/s 755 mmHg 45%
    20:00 +36°C° 0 mm 3 m/s 756 mmHg 47%
    21:00 +36°C° 0 mm 3 m/s 756 mmHg 49%
    22:00 +35°C° 0 mm 2 m/s 756 mmHg 51%
    23:00 +35°C° 0 mm 2 m/s 755 mmHg 52%

    Demain, 25 Septembre, Lundi

    Heure Température Précipitation Vent Pression Humidité
    00:00 +34°C° 0 mm 2 m/s 755 mmHg 54%
    01:00 +34°C° 0 mm 2 m/s 755 mmHg 55%
    02:00 +34°C° 0 mm 2 m/s 755 mmHg 56%
    03:00 +32°C° 0 mm 2 m/s 755 mmHg 56%
    04:00 +32°C° 0 mm 1 m/s 755 mmHg 57%
    05:00 +31°C° 0 mm 1 m/s 755 mmHg 57%
    06:00 +31°C° 0 mm 1 m/s 755 mmHg 57%
    07:00 +33°C° 0 mm 1 m/s 755 mmHg 53%
    08:00 +34°C° 0 mm 1 m/s 756 mmHg 48%
    09:00 +35°C° 0 mm 1 m/s 756 mmHg 43%
    10:00 +38°C° 0 mm 2 m/s 756 mmHg 39%
    11:00 +39°C° 0 mm 2 m/s 755 mmHg 35%
    12:00 +40°C° 0 mm 2 m/s 755 mmHg 31%
    13:00 +40°C° 0 mm 2 m/s 755 mmHg 28%
    14:00 +40°C° 0 mm 3 m/s 755 mmHg 26%
    15:00 +42°C° 0 mm 4 m/s 754 mmHg 23%
    16:00 +41°C° 0 mm 4 m/s 754 mmHg 28%
    17:00 +38°C° 0 mm 3 m/s 754 mmHg 33%
    18:00 +37°C° 0 mm 3 m/s 754 mmHg 38%
    19:00 +37°C° 0 mm 3 m/s 755 mmHg 40%
    20:00 +36°C° 0 mm 3 m/s 755 mmHg 43%
    21:00 +35°C° 0 mm 3 m/s 755 mmHg 46%
    22:00 +35°C° 0 mm 2 m/s 755 mmHg 48%
    23:00 +34°C° 0 mm 2 m/s 755 mmHg 50%

    Après-demain, 26 Septembre, Mardi

    Heure Température Précipitation Vent Pression Humidité
    00:00 +33°C° 0 mm 1 m/s 755 mmHg 52%
    01:00 +32°C° 0 mm 1 m/s 755 mmHg 52%
    02:00 +32°C° 0 mm 1 m/s 755 mmHg 52%
    03:00 +31°C° 0 mm 1 m/s 754 mmHg 52%
    04:00 +31°C° 0 mm 1 m/s 754 mmHg 51%
    05:00 +31°C° 0 mm 1 m/s 755 mmHg 50%
    06:00 +31°C° 0 mm 1 m/s 755 mmHg 49%
    07:00 +34°C° 0 mm 2 m/s 755 mmHg 44%
    08:00 +36°C° 0 mm 2 m/s 756 mmHg 39%
    09:00 +37°C° 0 mm 2 m/s 756 mmHg 33%
    10:00 +38°C° 0 mm 2 m/s 756 mmHg 30%
    11:00 +39°C° 0 mm 2 m/s 756 mmHg 26%
    12:00 +40°C° 0 mm 3 m/s 755 mmHg 23%
    13:00 +40°C° 0 mm 3 m/s 755 mmHg 22%
    14:00 +42°C° 0 mm 3 m/s 755 mmHg 22%
    15:00 +42°C° 0 mm 3 m/s 754 mmHg 21%
    16:00 +39°C° 0 mm 3 m/s 754 mmHg 25%
    17:00 +38°C° 0 mm 2 m/s 754 mmHg 29%
    18:00 +37°C° 0 mm 2 m/s 755 mmHg 33%
    19:00 +37°C° 0 mm 2 m/s 755 mmHg 35%
    20:00 +36°C° 0 mm 2 m/s 755 mmHg 38%
    21:00 +35°C° 0 mm 2 m/s 756 mmHg 40%
    22:00 +35°C° 0 mm 2 m/s 756 mmHg 41%
    23:00 +35°C° 0 mm 2 m/s 755 mmHg 43%

    27 Septembre, Mercredi

    Heure Température Précipitation Vent Pression Humidité
    00:00 +34°C° 0 mm 2 m/s 755 mmHg 44%
    01:00 +34°C° 0 mm 2 m/s 755 mmHg 45%
    02:00 +32°C° 0 mm 1 m/s 755 mmHg 47%
    03:00 +31°C° 0 mm 1 m/s 755 mmHg 49%
    04:00 +31°C° 0 mm 1 m/s 755 mmHg 48%
    05:00 +31°C° 0 mm 1 m/s 755 mmHg 47%
    06:00 +31°C° 0 mm 1 m/s 756 mmHg 46%
    07:00 +33°C° 0 mm 1 m/s 756 mmHg 41%
    08:00 +35°C° 0 mm 1 m/s 757 mmHg 36%
    09:00 +37°C° 0 mm 1 m/s 757 mmHg 32%
    10:00 +39°C° 0 mm 1 m/s 757 mmHg 29%
    11:00 +39°C° 0 mm 1 m/s 756 mmHg 26%
    12:00 +40°C° 0 mm 1 m/s 756 mmHg 23%
    13:00 +41°C° 0 mm 1 m/s 756 mmHg 23%
    14:00 +41°C° 0 mm 2 m/s 755 mmHg 22%
    15:00 +41°C° 0 mm 2 m/s 755 mmHg 21%
    16:00 +40°C° 0 mm 2 m/s 755 mmHg 24%
    17:00 +38°C° 0 mm 2 m/s 755 mmHg 27%
    18:00 +37°C° 0 mm 2 m/s 755 mmHg 30%
    19:00 +37°C° 0 mm 2 m/s 755 mmHg 33%
    20:00 +36°C° 0 mm 2 m/s 756 mmHg 36%
    21:00 +36°C° 0 mm 2 m/s 756 mmHg 39%
    22:00 +35°C° 0 mm 2 m/s 756 mmHg 42%
    23:00 +35°C° 0 mm 2 m/s 755 mmHg 45%

    28 Septembre, Jeudi

    Heure Température Précipitation Vent Pression Humidité
    00:00 +34°C° 0 mm 2 m/s 755 mmHg 48%
    01:00 +34°C° 0 mm 2 m/s 755 mmHg 49%
    02:00 +32°C° 0 mm 1 m/s 755 mmHg 50%
    03:00 +31°C° 0 mm 1 m/s 754 mmHg 51%
    04:00 +32°C° 0 mm 1 m/s 755 mmHg 49%
    05:00 +32°C° 0 mm 1 m/s 755 mmHg 47%
    06:00 +32°C° 0 mm 1 m/s 755 mmHg 46%
    07:00 +34°C° 0 mm 2 m/s 756 mmHg 40%
    08:00 +36°C° 0 mm 2 m/s 756 mmHg 35%
    09:00 +38°C° 0 mm 2 m/s 757 mmHg 30%
    10:00 +39°C° 0 mm 2 m/s 756 mmHg 27%
    11:00 +40°C° 0 mm 2 m/s 756 mmHg 24%
    12:00 +41°C° 0 mm 2 m/s 755 mmHg 21%
    13:00 +41°C° 0 mm 2 m/s 755 mmHg 20%
    14:00 +41°C° 0 mm 2 m/s 755 mmHg 19%
    15:00 +42°C° 0 mm 3 m/s 754 mmHg 19%
    16:00 +40°C° 0 mm 2 m/s 754 mmHg 22%
    17:00 +39°C° 0 mm 2 m/s 755 mmHg 25%
    18:00 +37°C° 0 mm 2 m/s 755 mmHg 28%
    19:00 +37°C° 0 mm 2 m/s 755 mmHg 30%
    20:00 +35°C° 0 mm 1 m/s 755 mmHg 31%
    21:00 +34°C° 0 mm 1 m/s 756 mmHg 33%
    22:00 +34°C° 0 mm 1 m/s 755 mmHg 34%
    23:00 +33°C° 0 mm 1 m/s 755 mmHg 35%

    29 Septembre, Vendredi

    Heure Température Précipitation Vent Pression Humidité
    00:00 +33°C° 0 mm 1 m/s 754 mmHg 36%
    01:00 +33°C° 0 mm 1 m/s 754 mmHg 36%
    02:00 +34°C° 0 mm 2 m/s 754 mmHg 36%
    03:00 +34°C° 0 mm 2 m/s 754 mmHg 37%
    04:00 +34°C° 0 mm 2 m/s 754 mmHg 36%
    05:00 +34°C° 0 mm 3 m/s 755 mmHg 34%
    06:00 +34°C° 0 mm 3 m/s 755 mmHg 33%
    07:00 +35°C° 0 mm 3 m/s 755 mmHg 29%
    08:00 +37°C° 0 mm 3 m/s 756 mmHg 25%
    09:00 +39°C° 0 mm 3 m/s 756 mmHg 20%
    10:00 +40°C° 0 mm 2 m/s 755 mmHg 19%
    11:00 +40°C° 0 mm 2 m/s 755 mmHg 18%
    12:00 +41°C° 0 mm 1 m/s 754 mmHg 17%
    13:00 +41°C° 0 mm 2 m/s 754 mmHg 17%
    14:00 +42°C° 0 mm 2 m/s 754 mmHg 17%
    15:00 +43°C° 0 mm 3 m/s 753 mmHg 17%
    16:00 +40°C° 0 mm 3 m/s 753 mmHg 21%
    17:00 +39°C° 0 mm 3 m/s 754 mmHg 25%
    18:00 +38°C° 0 mm 2 m/s 754 mmHg 28%
    19:00 +37°C° 0 mm 2 m/s 754 mmHg 31%
    20:00 +36°C° 0 mm 2 m/s 754 mmHg 34%
    21:00 +36°C° 0 mm 2 m/s 755 mmHg 37%
    22:00 +35°C° 0 mm 2 m/s 754 mmHg 40%
    23:00 +34°C° 0 mm 1 m/s 754 mmHg 43%
    Voir plus